Location: NJAA Observatory
(40.6819°N, 74.8979°W)
Time: 14:04:58
(UTC-05:00)

Courier 1B - All Passes

Search period start: 11 December 2017 00:00
Search period end: 21 December 2017 00:00
Orbit: 962 x 1209 km, 28.3° (Epoch: 10 December)

Date Brightness Start Highest point End Pass type
(mag) Time Alt. Az. Time Alt. Az. Time Alt. Az.
11 Dec - 03:16:58 10° SSW 03:21:15 18° SSE 03:25:38 10° ESE visible
11 Dec - 05:08:47 10° SW 05:14:20 28° S 05:20:10 10° ESE visible
11 Dec - 07:02:05 10° WSW 07:07:39 26° S 07:13:29 10° SE daylight
11 Dec - 08:57:05 10° SW 09:00:52 15° SSW 09:04:45 10° S daylight
12 Dec - 02:24:23 10° S 02:27:46 15° SSE 02:31:13 10° SE visible
12 Dec - 04:15:29 10° SW 04:20:48 26° S 04:26:19 10° ESE visible
12 Dec - 06:08:28 10° WSW 06:14:02 28° S 06:19:53 10° SE visible
12 Dec - 08:02:48 10° WSW 08:07:17 18° SSW 08:11:55 10° SSE daylight
13 Dec - 01:32:36 10° S 01:34:21 11° SSE 01:36:05 10° SE night (unlit)
13 Dec - 03:22:17 10° SW 03:27:17 23° SSE 03:32:24 10° ESE visible
13 Dec - 05:14:56 10° WSW 05:20:28 28° S 05:26:14 10° SE visible
13 Dec - 07:08:50 10° WSW 07:13:42 21° SSW 07:18:46 10° SSE daylight
14 Dec - 02:29:12 10° SSW 02:33:47 20° SSE 02:38:26 10° ESE visible
14 Dec - 04:21:29 10° SW 04:26:54 28° S 04:32:32 10° ESE visible
14 Dec - 06:15:02 10° WSW 06:20:08 23° SSW 06:25:27 10° SE visible
14 Dec - 08:11:12 10° SW 08:13:15 11° SSW 08:15:19 10° S daylight
15 Dec - 01:36:20 10° SSW 01:40:18 17° SSE 01:44:19 10° ESE night (unlit)
15 Dec - 03:28:04 10° SW 03:33:22 27° S 03:38:47 10° ESE visible
15 Dec - 05:21:20 10° WSW 05:26:35 25° S 05:32:00 10° SE visible
15 Dec - 07:16:17 10° SW 07:19:42 14° SSW 07:23:13 10° S daylight
16 Dec - 00:43:47 10° S 00:46:51 14° SSE 00:49:56 10° SE night (unlit)
16 Dec - 02:34:45 10° SW 02:39:51 25° S 02:45:02 10° ESE visible
16 Dec - 04:27:43 10° WSW 04:33:02 27° S 04:38:29 10° SE visible
16 Dec - 06:22:02 10° WSW 06:26:11 17° SSW 06:30:27 10° SSE visible
16 Dec - 23:52:13 10° SSE 23:53:25 10° SSE 23:54:35 10° SE night (unlit)
17 Dec - 01:41:30 10° SW 01:46:22 22° SSE 01:51:14 10° ESE night (unlit)
17 Dec - 03:34:11 10° WSW 03:39:31 27° S 03:44:56 10° SE visible
17 Dec - 05:28:04 10° WSW 05:32:40 20° SSW 05:37:22 10° SSE visible
18 Dec - 00:48:23 10° SSW 00:52:53 20° SSE 00:57:20 10° ESE night (unlit)
18 Dec - 02:40:41 10° SW 02:45:59 27° S 02:51:21 10° ESE visible
18 Dec - 04:34:16 10° WSW 04:39:08 23° SSW 04:44:08 10° SE visible
18 Dec - 06:30:36 10° SW 06:32:10 11° SSW 06:33:45 10° S visible
18 Dec - 23:55:26 10° SSW 23:59:24 17° SSE 00:03:18 10° ESE night (unlit)
19 Dec - 01:47:13 10° SW 01:52:29 26° S 01:57:43 10° ESE night (unlit)
19 Dec - 03:40:32 10° WSW 03:45:38 25° S 03:50:48 10° SE visible
19 Dec - 05:35:32 10° SW 05:38:41 14° SSW 05:41:53 10° S visible
19 Dec - 23:02:48 10° S 23:05:55 14° SSE 23:08:59 10° SE night (unlit)
20 Dec - 00:53:49 10° SW 00:58:57 25° S 01:04:03 10° ESE night (unlit)
20 Dec - 02:46:53 10° WSW 02:52:08 26° S 02:57:23 10° SE visible
20 Dec - 04:41:15 10° WSW 04:45:12 17° SSW 04:49:13 10° SSE visible
20 Dec - 22:11:06 10° SSE 22:12:26 11° SSE 22:13:45 10° SE night (unlit)
